timestamp,surface_pressure_avg,surface_temp_avg,battery_voltage,lat,long
2021-11-22 00:09:00+00:00,318.8331,8.9,12.65,47.84626,-54.09684
2021-11-22 00:19:00+00:00,319.3014,8.9,12.65,47.84626,-54.09684
2021-11-22 00:29:00+00:00,315.093,8.9,12.65,47.84626,-54.09684
2021-11-22 00:39:00+00:00,316.258,8.9,12.65,47.84626,-54.09684
2021-11-22 00:49:00+00:00,317.718,8.9,12.65,47.84626,-54.09684
2021-11-22 00:59:00+00:00,314.8913,8.9,12.65,47.84626,-54.09684
2021-11-22 01:09:00+00:00,315.3214,8.9,12.65,47.84626,-54.09684
2021-11-22 01:19:00+00:00,313.743,8.9,12.65,47.84626,-54.09684
2021-11-22 01:29:00+00:00,312.0514,8.9,12.65,47.84626,-54.09684
2021-11-22 01:39:00+00:00,309.8563,8.9,12.65,47.84626,-54.09684
2021-11-22 01:49:00+00:00,310.2347,8.9,12.65,47.84626,-54.09684
2021-11-22 01:59:00+00:00,308.1663,8.9,12.65,47.84626,-54.09684
2021-11-22 02:09:00+00:00,306.8147,8.9,12.65,47.84626,-54.09684
2021-11-22 02:19:00+00:00,306.6664,8.9,12.65,47.84626,-54.09684
2021-11-22 02:29:00+00:00,301.053,8.9,12.65,47.84626,-54.09684
2021-11-22 02:39:00+00:00,296.4747,8.9,12.65,47.84626,-54.09684
2021-11-22 02:49:00+00:00,291.9464,8.9,12.65,47.84626,-54.09684
2021-11-22 02:59:00+00:00,289.9247,8.9,12.65,47.84626,-54.09684
2021-11-22 03:09:00+00:00,286.5614,8.9,12.65,47.84626,-54.09684
2021-11-22 03:19:01+00:00,283.5997,8.9,12.57,47.84626,-54.09684
2021-11-22 03:29:01+00:00,279.6997,8.9,12.57,47.84626,-54.09684
2021-11-22 03:39:01+00:00,273.8698,8.9,12.57,47.84626,-54.09684
2021-11-22 03:49:01+00:00,266.4198,8.84,12.57,47.84626,-54.09684
2021-11-22 03:59:01+00:00,259.0997,8.8,12.57,47.84626,-54.09684
2021-11-22 04:09:01+00:00,252.1564,8.8,12.57,47.84626,-54.09684
2021-11-22 04:19:00+00:00,246.2897,8.79,12.57,47.84626,-54.09684
2021-11-22 04:29:00+00:00,241.3698,8.75,12.57,47.84626,-54.09684
2021-11-22 04:39:00+00:00,233.4398,8.7,12.57,47.84626,-54.09684
2021-11-22 04:49:00+00:00,225.2081,8.7,12.57,47.84626,-54.09684
2021-11-22 04:59:00+00:00,221.5764,8.7,12.57,47.84626,-54.09684
2021-11-22 05:09:00+00:00,217.7365,8.7,12.57,47.84626,-54.09684
2021-11-22 05:19:00+00:00,209.7064,8.7,12.57,47.84626,-54.09684
2021-11-22 05:29:00+00:00,203.3582,8.7,12.57,47.84626,-54.09684
2021-11-22 05:39:00+00:00,201.8698,8.7,12.57,47.84626,-54.09684
2021-11-22 05:49:00+00:00,196.3198,8.7,12.57,47.84626,-54.09684
2021-11-22 05:59:00+00:00,188.5264,8.7,12.57,47.84626,-54.09684
2021-11-22 06:09:00+00:00,185.4031,8.68,12.57,47.84626,-54.09684
2021-11-22 06:19:01+00:00,186.3414,8.68,12.57,47.84626,-54.09684
2021-11-22 06:29:01+00:00,184.0148,8.68,12.57,47.84626,-54.09684
2021-11-22 06:39:01+00:00,179.3765,8.61,12.57,47.84626,-54.09684
2021-11-22 06:49:01+00:00,180.5381,8.6,12.57,47.84626,-54.09684
2021-11-22 06:59:01+00:00,181.3632,8.6,12.57,47.84626,-54.09684
2021-11-22 07:09:01+00:00,179.1765,8.6,12.57,47.84626,-54.09684
2021-11-22 07:19:00+00:00,180.4631,8.6,12.57,47.84626,-54.09684
2021-11-22 07:29:00+00:00,185.1865,8.6,12.57,47.84626,-54.09684
2021-11-22 07:39:00+00:00,187.8681,8.62,12.57,47.84626,-54.09684
2021-11-22 07:49:00+00:00,189.3882,8.68,12.57,47.84626,-54.09684
2021-11-22 07:59:00+00:00,195.0531,8.69,12.57,47.84626,-54.09684
2021-11-22 08:09:00+00:00,200.0381,8.7,12.57,47.84626,-54.09684
2021-11-22 08:19:00+00:00,200.6448,8.7,12.57,47.84626,-54.09684
2021-11-22 08:29:00+00:00,206.5148,8.7,12.57,47.84626,-54.09684
2021-11-22 08:39:00+00:00,215.4414,8.76,12.57,47.84626,-54.09684
2021-11-22 08:49:00+00:00,217.7681,8.8,12.57,47.84626,-54.09684
2021-11-22 08:59:00+00:00,220.9298,8.8,12.57,47.84626,-54.09684
2021-11-22 09:09:00+00:00,228.3364,8.8,12.57,47.84626,-54.09684
2021-11-22 09:19:00+00:00,233.2581,8.89,12.57,47.84626,-54.09684
2021-11-22 09:29:00+00:00,235.8831,8.9,12.57,47.84626,-54.09684
2021-11-22 09:39:00+00:00,241.8248,8.9,12.57,47.84626,-54.09684
2021-11-22 09:49:00+00:00,249.6464,8.9,12.57,47.84626,-54.09684
2021-11-22 09:59:00+00:00,254.4631,8.9,12.57,47.84626,-54.09684
2021-11-22 10:09:00+00:00,258.5181,8.9,12.57,47.84626,-54.09684
2021-11-22 10:19:00+00:00,265.4097,8.9,12.57,47.84626,-54.09684
2021-11-22 10:29:00+00:00,270.9497,8.9,12.57,47.84626,-54.09684
2021-11-22 10:39:00+00:00,274.5431,8.9,12.57,47.84626,-54.09684
2021-11-22 10:49:00+00:00,279.2197,8.9,12.57,47.84626,-54.09684
2021-11-22 10:59:00+00:00,284.4997,8.9,12.57,47.84626,-54.09684
2021-11-22 11:09:00+00:00,287.9197,8.9,12.57,47.84626,-54.09684
2021-11-22 11:19:00+00:00,292.313,8.9,12.65,47.84626,-54.09684
2021-11-22 11:29:00+00:00,299.3331,8.96,12.65,47.84626,-54.09684
2021-11-22 11:39:00+00:00,304.323,8.97,12.65,47.84626,-54.09684
2021-11-22 11:49:00+00:00,309.6663,8.99,12.65,47.84626,-54.09684
2021-11-22 11:59:00+00:00,316.5413,8.99,12.65,47.84626,-54.09684
2021-11-22 12:09:00+00:00,323.1613,9.0,12.65,47.84626,-54.09684
2021-11-22 12:19:01+00:00,326.0964,9.0,13.37,47.84626,-54.09684
2021-11-22 12:29:01+00:00,332.6330000000001,8.99,13.37,47.84626,-54.09684
2021-11-22 12:39:01+00:00,337.7313,9.0,13.37,47.84626,-54.09684
2021-11-22 12:49:01+00:00,339.5096,9.0,13.37,47.84626,-54.09684
2021-11-22 12:59:01+00:00,341.7580000000001,8.99,13.37,47.84626,-54.09684
2021-11-22 13:09:01+00:00,343.4797,9.0,13.37,47.84626,-54.09684
2021-11-22 13:19:01+00:00,344.2681,9.0,13.29,47.84626,-54.09684
2021-11-22 13:29:01+00:00,343.4597,9.0,13.29,47.84626,-54.09684
2021-11-22 13:39:01+00:00,347.11800000000005,9.0,13.29,47.84626,-54.09684
2021-11-22 13:49:01+00:00,347.5429,9.0,13.29,47.84626,-54.09684
2021-11-22 13:59:01+00:00,344.2496,9.0,13.29,47.84626,-54.09684
2021-11-22 14:09:01+00:00,344.6379,9.0,13.29,47.84626,-54.09684
2021-11-22 14:19:00+00:00,346.5379,9.0,14.88,47.84626,-54.09684
2021-11-22 14:29:00+00:00,341.1330000000001,9.0,14.88,47.84626,-54.09684
2021-11-22 14:39:00+00:00,334.2896,9.0,14.88,47.84626,-54.09684
2021-11-22 14:49:00+00:00,336.1896,9.0,14.88,47.84626,-54.09684
2021-11-22 14:59:00+00:00,331.1197,9.0,14.88,47.84626,-54.09684
2021-11-22 15:09:00+00:00,320.8013,9.0,14.88,47.84626,-54.09684
2021-11-22 15:19:00+00:00,315.3797,9.0,14.8,47.84626,-54.09684
2021-11-22 15:29:00+00:00,316.1846,9.0,14.8,47.84626,-54.09684
2021-11-22 15:39:00+00:00,306.713,9.0,14.8,47.84626,-54.09684
2021-11-22 15:49:00+00:00,296.2914,9.0,14.8,47.84626,-54.09684
2021-11-22 15:59:00+00:00,296.763,8.99,14.8,47.84626,-54.09684
2021-11-22 16:09:00+00:00,294.4097,8.99,14.8,47.84626,-54.09684
2021-11-22 16:19:00+00:00,282.343,8.9,14.64,47.84626,-54.09684
2021-11-22 16:29:00+00:00,275.9831,8.9,14.64,47.84626,-54.09684
2021-11-22 16:39:00+00:00,274.1514,8.9,14.64,47.84626,-54.09684
2021-11-22 16:49:00+00:00,264.6697,8.9,14.64,47.84626,-54.09684
2021-11-22 16:59:00+00:00,252.7881,8.9,14.64,47.84626,-54.09684
2021-11-22 17:09:00+00:00,248.9181,8.9,14.64,47.84626,-54.09684
2021-11-22 17:19:00+00:00,242.5914,8.94,14.56,47.84626,-54.09684
2021-11-22 17:29:00+00:00,231.6732,8.94,14.56,47.84626,-54.09684
2021-11-22 17:39:00+00:00,226.0548,8.97,14.56,47.84626,-54.09684
2021-11-22 17:49:00+00:00,223.0331,8.98,14.56,47.84626,-54.09684
2021-11-22 17:59:00+00:00,214.1914,8.99,14.56,47.84626,-54.09684
2021-11-22 18:09:00+00:00,206.2297,9.0,14.56,47.84626,-54.09684
2021-11-22 18:19:01+00:00,204.7448,9.0,14.4,47.84626,-54.09684
2021-11-22 18:29:01+00:00,197.6665,9.0,14.4,47.84626,-54.09684
2021-11-22 18:39:01+00:00,186.7881,9.0,14.4,47.84626,-54.09684
2021-11-22 18:49:01+00:00,184.0281,9.0,14.4,47.84626,-54.09684
2021-11-22 18:59:01+00:00,186.0231,9.0,14.4,47.84626,-54.09684
2021-11-22 19:09:01+00:00,180.6214,9.0,14.4,47.84626,-54.09684
2021-11-22 19:19:01+00:00,177.7198,9.0,13.92,47.84626,-54.09684
2021-11-22 19:29:01+00:00,185.0732,9.0,13.92,47.84626,-54.09684
2021-11-22 19:39:01+00:00,188.4631,9.0,13.92,47.84626,-54.09684
2021-11-22 19:49:01+00:00,189.1065,9.0,13.92,47.84626,-54.09684
2021-11-22 19:59:01+00:00,195.6448,9.0,13.92,47.84626,-54.09684
2021-11-22 20:09:01+00:00,201.9715,9.0,13.92,47.84626,-54.09684
2021-11-22 20:19:01+00:00,202.7932,9.0,13.37,47.84626,-54.09684
2021-11-22 20:29:01+00:00,208.1498,9.0,13.37,47.84626,-54.09684
2021-11-22 20:39:01+00:00,216.4631,9.0,13.37,47.84626,-54.09684
2021-11-22 20:49:01+00:00,217.0348,9.0,13.37,47.84626,-54.09684
2021-11-22 20:59:01+00:00,215.5398,9.0,13.37,47.84626,-54.09684
2021-11-22 21:09:01+00:00,220.9464,9.0,13.37,47.84626,-54.09684
2021-11-22 21:19:00+00:00,227.3064,9.0,13.05,47.84626,-54.09684
2021-11-22 21:29:00+00:00,230.0198,9.0,13.05,47.84626,-54.09684
2021-11-22 21:39:00+00:00,233.6848,9.0,13.05,47.84626,-54.09684
2021-11-22 21:49:00+00:00,241.8548,9.0,13.05,47.84626,-54.09684
2021-11-22 21:59:00+00:00,248.7731,9.0,13.05,47.84626,-54.09684
2021-11-22 22:09:00+00:00,252.1381,9.0,13.05,47.84626,-54.09684
2021-11-22 22:19:00+00:00,254.4648,9.0,12.73,47.84626,-54.09684
2021-11-22 22:29:00+00:00,261.7014,9.0,12.73,47.84626,-54.09684
2021-11-22 22:39:00+00:00,265.4931,9.0,12.73,47.84626,-54.09684
2021-11-22 22:49:00+00:00,266.7498,9.0,12.73,47.84626,-54.09684
2021-11-22 22:59:00+00:00,264.6848,8.99,12.73,47.84626,-54.09684
2021-11-22 23:09:00+00:00,267.8014,8.97,12.73,47.84626,-54.09684
2021-11-22 23:19:00+00:00,273.9114,8.92,12.65,47.84626,-54.09684
2021-11-22 23:29:00+00:00,283.0797,8.99,12.65,47.84626,-54.09684
2021-11-22 23:39:00+00:00,289.1964,9.0,12.65,47.84626,-54.09684
2021-11-22 23:49:00+00:00,294.5547,9.0,12.65,47.84626,-54.09684
2021-11-22 23:59:00+00:00,299.6114,9.0,12.65,47.84626,-54.09684
